カタログに戻る

CZ-6A DEB

運用中PO
NORAD 56641·DEBRIS·🇨🇳 China

打ち上げ Nov 11, 2022 から Taiyuan Satellite Launch Center

Loading…

次のパス (今後24時間)

TLE

最新Source: Space-Track

元期: Sep 14, 2026, 18:56 UTC

1 56641U 22151AFR 26257.78893894  .00005439  00000-0  59464-3 0  9993
2 56641  98.6721  10.6429 0126120 256.7362 101.9758 14.82655018187010

AllMySatでCZ-6A DEBをリアルタイム追跡

Download on the App Store